<?xml version="1.0" encoding="UTF-8" standalone="no" ?>
<gpx xmlns="http://www.topografix.com/GPX/1/1" xmlns:xsi="http://www.w3.org/2001/XMLSchema-instance" xsi:schemaLocation="http://www.topografix.com/GPX/1/1 http://www.topografix.com/GPX/1/1/gpx.xsd" version="1.1" creator="VisuGPX - https://www.visugpx.com">
  <metadata>
    <name>descentes sur douelle</name>
    <desc><![CDATA[descentes sur douelle]]></desc>
  </metadata>
  <trk>
    <name><![CDATA[gr sur douelle]]></name>
    <trkseg>
      <trkpt lat="44.46355" lon="1.37143">
        <ele>304.88</ele>
        <time>2014-06-05T11:08:24Z</time>
      </trkpt>
      <trkpt lat="44.46357" lon="1.37124">
        <ele>303.91</ele>
        <time>2014-06-05T11:08:28Z</time>
      </trkpt>
      <trkpt lat="44.4636" lon="1.37108">
        <ele>302.95</ele>
        <time>2014-06-05T11:08:31Z</time>
      </trkpt>
      <trkpt lat="44.46378" lon="1.37062">
        <ele>299.59</ele>
        <time>2014-06-05T11:08:38Z</time>
      </trkpt>
      <trkpt lat="44.46382" lon="1.37036">
        <ele>297.18</ele>
        <time>2014-06-05T11:08:41Z</time>
      </trkpt>
      <trkpt lat="44.46389" lon="1.3699">
        <ele>294.3</ele>
        <time>2014-06-05T11:08:47Z</time>
      </trkpt>
      <trkpt lat="44.46391" lon="1.36981">
        <ele>293.34</ele>
        <time>2014-06-05T11:08:48Z</time>
      </trkpt>
      <trkpt lat="44.46408" lon="1.36921">
        <ele>295.26</ele>
        <time>2014-06-05T11:08:58Z</time>
      </trkpt>
      <trkpt lat="44.46406" lon="1.36891">
        <ele>294.78</ele>
        <time>2014-06-05T11:09:03Z</time>
      </trkpt>
      <trkpt lat="44.46405" lon="1.36878">
        <ele>294.3</ele>
        <time>2014-06-05T11:09:05Z</time>
      </trkpt>
      <trkpt lat="44.46405" lon="1.36859">
        <ele>294.3</ele>
        <time>2014-06-05T11:09:08Z</time>
      </trkpt>
      <trkpt lat="44.46411" lon="1.36801">
        <ele>296.7</ele>
        <time>2014-06-05T11:09:22Z</time>
      </trkpt>
      <trkpt lat="44.46418" lon="1.36755">
        <ele>294.3</ele>
        <time>2014-06-05T11:09:30Z</time>
      </trkpt>
      <trkpt lat="44.46425" lon="1.36736">
        <ele>293.82</ele>
        <time>2014-06-05T11:09:34Z</time>
      </trkpt>
      <trkpt lat="44.46431" lon="1.36712">
        <ele>291.9</ele>
        <time>2014-06-05T11:09:44Z</time>
      </trkpt>
      <trkpt lat="44.46431" lon="1.36711">
        <ele>291.9</ele>
        <time>2014-06-05T11:09:49Z</time>
      </trkpt>
      <trkpt lat="44.4643" lon="1.36703">
        <ele>290.46</ele>
        <time>2014-06-05T11:09:52Z</time>
      </trkpt>
      <trkpt lat="44.46437" lon="1.36688">
        <ele>288.53</ele>
        <time>2014-06-05T11:10:03Z</time>
      </trkpt>
      <trkpt lat="44.46438" lon="1.36684">
        <ele>288.05</ele>
        <time>2014-06-05T11:10:16Z</time>
      </trkpt>
      <trkpt lat="44.46438" lon="1.36684">
        <ele>287.57</ele>
        <time>2014-06-05T11:10:19Z</time>
      </trkpt>
      <trkpt lat="44.4644" lon="1.36682">
        <ele>287.57</ele>
        <time>2014-06-05T11:10:21Z</time>
      </trkpt>
      <trkpt lat="44.46443" lon="1.36677">
        <ele>286.13</ele>
        <time>2014-06-05T11:10:25Z</time>
      </trkpt>
      <trkpt lat="44.46452" lon="1.36666">
        <ele>283.25</ele>
        <time>2014-06-05T11:10:32Z</time>
      </trkpt>
      <trkpt lat="44.46462" lon="1.36653">
        <ele>279.4</ele>
        <time>2014-06-05T11:10:38Z</time>
      </trkpt>
      <trkpt lat="44.46464" lon="1.36651">
        <ele>278.92</ele>
        <time>2014-06-05T11:10:39Z</time>
      </trkpt>
      <trkpt lat="44.46468" lon="1.36651">
        <ele>277.96</ele>
        <time>2014-06-05T11:10:41Z</time>
      </trkpt>
      <trkpt lat="44.46474" lon="1.36655">
        <ele>277.48</ele>
        <time>2014-06-05T11:10:51Z</time>
      </trkpt>
      <trkpt lat="44.46471" lon="1.36653">
        <ele>277</ele>
        <time>2014-06-05T11:11:26Z</time>
      </trkpt>
      <trkpt lat="44.46473" lon="1.36653">
        <ele>277.48</ele>
        <time>2014-06-05T11:11:54Z</time>
      </trkpt>
      <trkpt lat="44.46476" lon="1.36651">
        <ele>277</ele>
        <time>2014-06-05T11:12:00Z</time>
      </trkpt>
      <trkpt lat="44.46482" lon="1.36643">
        <ele>274.11</ele>
        <time>2014-06-05T11:12:04Z</time>
      </trkpt>
      <trkpt lat="44.46488" lon="1.36631">
        <ele>270.27</ele>
        <time>2014-06-05T11:12:09Z</time>
      </trkpt>
      <trkpt lat="44.46496" lon="1.36617">
        <ele>266.42</ele>
        <time>2014-06-05T11:12:15Z</time>
      </trkpt>
      <trkpt lat="44.46498" lon="1.36616">
        <ele>265.94</ele>
        <time>2014-06-05T11:12:17Z</time>
      </trkpt>
      <trkpt lat="44.46499" lon="1.36614">
        <ele>265.46</ele>
        <time>2014-06-05T11:12:18Z</time>
      </trkpt>
      <trkpt lat="44.46508" lon="1.36604">
        <ele>261.62</ele>
        <time>2014-06-05T11:12:25Z</time>
      </trkpt>
      <trkpt lat="44.46511" lon="1.366">
        <ele>260.65</ele>
        <time>2014-06-05T11:12:27Z</time>
      </trkpt>
      <trkpt lat="44.46513" lon="1.36598">
        <ele>259.69</ele>
        <time>2014-06-05T11:12:28Z</time>
      </trkpt>
      <trkpt lat="44.4652" lon="1.36591">
        <ele>257.77</ele>
        <time>2014-06-05T11:12:32Z</time>
      </trkpt>
      <trkpt lat="44.46522" lon="1.36586">
        <ele>256.33</ele>
        <time>2014-06-05T11:12:35Z</time>
      </trkpt>
      <trkpt lat="44.46531" lon="1.36576">
        <ele>252.96</ele>
        <time>2014-06-05T11:12:41Z</time>
      </trkpt>
      <trkpt lat="44.46533" lon="1.36575">
        <ele>252.48</ele>
        <time>2014-06-05T11:12:42Z</time>
      </trkpt>
      <trkpt lat="44.46542" lon="1.36559">
        <ele>249.12</ele>
        <time>2014-06-05T11:12:49Z</time>
      </trkpt>
      <trkpt lat="44.46552" lon="1.3655">
        <ele>244.79</ele>
        <time>2014-06-05T11:12:55Z</time>
      </trkpt>
      <trkpt lat="44.4656" lon="1.36542">
        <ele>241.43</ele>
        <time>2014-06-05T11:13:00Z</time>
      </trkpt>
      <trkpt lat="44.46562" lon="1.3654">
        <ele>240.47</ele>
        <time>2014-06-05T11:13:01Z</time>
      </trkpt>
      <trkpt lat="44.46574" lon="1.36532">
        <ele>237.1</ele>
        <time>2014-06-05T11:13:07Z</time>
      </trkpt>
      <trkpt lat="44.46576" lon="1.36527">
        <ele>235.66</ele>
        <time>2014-06-05T11:13:09Z</time>
      </trkpt>
      <trkpt lat="44.46586" lon="1.36519">
        <ele>231.81</ele>
        <time>2014-06-05T11:13:15Z</time>
      </trkpt>
      <trkpt lat="44.46594" lon="1.36513">
        <ele>228.93</ele>
        <time>2014-06-05T11:13:20Z</time>
      </trkpt>
      <trkpt lat="44.46595" lon="1.36511">
        <ele>228.45</ele>
        <time>2014-06-05T11:13:21Z</time>
      </trkpt>
      <trkpt lat="44.46599" lon="1.36509">
        <ele>227.49</ele>
        <time>2014-06-05T11:13:23Z</time>
      </trkpt>
      <trkpt lat="44.46601" lon="1.36502">
        <ele>225.57</ele>
        <time>2014-06-05T11:13:27Z</time>
      </trkpt>
      <trkpt lat="44.46605" lon="1.36497">
        <ele>223.64</ele>
        <time>2014-06-05T11:13:41Z</time>
      </trkpt>
      <trkpt lat="44.46606" lon="1.36492">
        <ele>222.2</ele>
        <time>2014-06-05T11:13:49Z</time>
      </trkpt>
      <trkpt lat="44.46616" lon="1.36484">
        <ele>218.84</ele>
        <time>2014-06-05T11:13:55Z</time>
      </trkpt>
      <trkpt lat="44.46621" lon="1.36479">
        <ele>217.4</ele>
        <time>2014-06-05T11:13:58Z</time>
      </trkpt>
      <trkpt lat="44.46633" lon="1.36473">
        <ele>214.99</ele>
        <time>2014-06-05T11:14:02Z</time>
      </trkpt>
      <trkpt lat="44.4664" lon="1.36471">
        <ele>214.03</ele>
        <time>2014-06-05T11:14:04Z</time>
      </trkpt>
      <trkpt lat="44.4665" lon="1.36467">
        <ele>212.11</ele>
        <time>2014-06-05T11:14:07Z</time>
      </trkpt>
      <trkpt lat="44.46662" lon="1.36447">
        <ele>208.74</ele>
        <time>2014-06-05T11:14:13Z</time>
      </trkpt>
      <trkpt lat="44.4667" lon="1.36436">
        <ele>206.34</ele>
        <time>2014-06-05T11:14:16Z</time>
      </trkpt>
      <trkpt lat="44.46683" lon="1.36411">
        <ele>201.05</ele>
        <time>2014-06-05T11:14:22Z</time>
      </trkpt>
      <trkpt lat="44.46702" lon="1.36386">
        <ele>195.77</ele>
        <time>2014-06-05T11:14:30Z</time>
      </trkpt>
      <trkpt lat="44.46704" lon="1.36381">
        <ele>194.32</ele>
        <time>2014-06-05T11:14:31Z</time>
      </trkpt>
      <trkpt lat="44.46715" lon="1.36362">
        <ele>190.96</ele>
        <time>2014-06-05T11:14:35Z</time>
      </trkpt>
      <trkpt lat="44.46726" lon="1.3634">
        <ele>187.59</ele>
        <time>2014-06-05T11:14:40Z</time>
      </trkpt>
      <trkpt lat="44.46736" lon="1.36323">
        <ele>184.71</ele>
        <time>2014-06-05T11:14:43Z</time>
      </trkpt>
      <trkpt lat="44.4675" lon="1.36298">
        <ele>181.83</ele>
        <time>2014-06-05T11:14:47Z</time>
      </trkpt>
      <trkpt lat="44.46766" lon="1.36265">
        <ele>176.54</ele>
        <time>2014-06-05T11:14:53Z</time>
      </trkpt>
      <trkpt lat="44.46774" lon="1.36257">
        <ele>175.1</ele>
        <time>2014-06-05T11:14:55Z</time>
      </trkpt>
      <trkpt lat="44.46788" lon="1.36253">
        <ele>173.17</ele>
        <time>2014-06-05T11:14:59Z</time>
      </trkpt>
      <trkpt lat="44.46805" lon="1.36252">
        <ele>169.33</ele>
        <time>2014-06-05T11:15:03Z</time>
      </trkpt>
      <trkpt lat="44.46821" lon="1.36246">
        <ele>165.96</ele>
        <time>2014-06-05T11:15:07Z</time>
      </trkpt>
      <trkpt lat="44.46829" lon="1.36243">
        <ele>163.56</ele>
        <time>2014-06-05T11:15:09Z</time>
      </trkpt>
      <trkpt lat="44.46837" lon="1.36229">
        <ele>159.24</ele>
        <time>2014-06-05T11:15:14Z</time>
      </trkpt>
      <trkpt lat="44.46842" lon="1.36221">
        <ele>156.35</ele>
        <time>2014-06-05T11:15:17Z</time>
      </trkpt>
      <trkpt lat="44.46851" lon="1.36206">
        <ele>151.54</ele>
        <time>2014-06-05T11:15:23Z</time>
      </trkpt>
      <trkpt lat="44.46855" lon="1.36199">
        <ele>149.62</ele>
        <time>2014-06-05T11:15:25Z</time>
      </trkpt>
      <trkpt lat="44.4686" lon="1.36187">
        <ele>146.74</ele>
        <time>2014-06-05T11:15:28Z</time>
      </trkpt>
      <trkpt lat="44.4687" lon="1.36171">
        <ele>142.41</ele>
        <time>2014-06-05T11:15:34Z</time>
      </trkpt>
      <trkpt lat="44.46881" lon="1.36182">
        <ele>139.05</ele>
        <time>2014-06-05T11:15:40Z</time>
      </trkpt>
      <trkpt lat="44.46889" lon="1.36196">
        <ele>135.68</ele>
        <time>2014-06-05T11:15:45Z</time>
      </trkpt>
      <trkpt lat="44.46898" lon="1.36193">
        <ele>134.24</ele>
        <time>2014-06-05T11:15:49Z</time>
      </trkpt>
      <trkpt lat="44.46901" lon="1.36188">
        <ele>133.28</ele>
        <time>2014-06-05T11:15:51Z</time>
      </trkpt>
      <trkpt lat="44.46904" lon="1.36175">
        <ele>129.43</ele>
        <time>2014-06-05T11:15:56Z</time>
      </trkpt>
      <trkpt lat="44.46908" lon="1.36166">
        <ele>126.07</ele>
        <time>2014-06-05T11:16:00Z</time>
      </trkpt>
      <trkpt lat="44.46909" lon="1.36162">
        <ele>125.11</ele>
        <time>2014-06-05T11:16:04Z</time>
      </trkpt>
      <trkpt lat="44.46913" lon="1.36146">
        <ele>121.26</ele>
        <time>2014-06-05T11:16:09Z</time>
      </trkpt>
      <trkpt lat="44.46916" lon="1.36138">
        <ele>119.34</ele>
        <time>2014-06-05T11:16:12Z</time>
      </trkpt>
      <trkpt lat="44.46921" lon="1.3612">
        <ele>115.01</ele>
        <time>2014-06-05T11:16:21Z</time>
      </trkpt>
    </trkseg>
  </trk>
</gpx>